#timestamp,LO_Frequency,Hit,StdDev 
1511172015.1,286047005.8,N
1511172016.0,286047005.8,N
1511172035.8,286047006.2,N
1511172055.6,286047007.9,N
1511172075.5,286047012.4,N
1511172095.3,286047008.1,N
1511172115.1,286047012.3,N
1511172135.9,286047013.3,N
1511172155.7,286047015.4,N
1511172175.5,286047012.7,N
1511172195.4,286047017.1,Y
1511172215.2,286047007.9,P
1511172235.0,286047010.2,P
1511172235.9,286047010.2,P
1511172255.7,286047005.0,N
1511172275.6,286047003.0,N
1511172295.4,286047005.6,N
1511172315.2,286047006.5,N
1511172335.1,286047006.9,N
1511172336.0,286047006.9,Y
1511172355.8,286046998.8,P
1511172375.6,286046999.2,N
1511172395.5,286047001.1,N
1511172415.3,286047002.5,N
1511172435.1,286047005.7,N
1511172455.9,286047004.0,N
1511172475.7,286047006.1,N
1511172495.5,286047004.8,N
1511172515.4,286047005.4,N
1511172535.2,286047001.7,N
1511172555.0,286047006.0,N
1511172555.9,286047006.0,N
1511172575.8,286047003.8,N
1511172595.6,286047004.5,N
1511172615.4,286047003.5,N
1511172635.3,286046999.7,N
1511172655.1,286047000.7,N
1511172656.0,286047000.7,N
1511172675.8,286047000.3,N
1511172695.6,286047003.1,N
1511172715.5,286047009.0,Y
1511172735.3,286047008.0,P
1511172755.1,286047008.9,P
1511172775.9,286047004.8,N
1511172795.7,286047004.7,N
1511172815.5,286046998.2,N
1511172835.4,286046994.0,N
1511172855.2,286046993.0,N
1511172875.0,286046991.1,N
1511172875.9,286046991.1,N
1511172895.8,286046991.4,N
1511172915.6,286046989.9,N
1511172935.4,286046985.6,N
1511172955.3,286046988.0,N
1511172975.1,286046987.1,N
1511172976.0,286046987.1,N
1511172995.8,286046986.4,N
1511173015.7,286046979.5,N
1511173035.5,286046980.0,N
1511173055.3,286046979.1,N
1511173075.1,286046977.9,N
1511173095.9,286046974.4,N
1511173115.7,286046978.5,N
1511173135.5,286046983.0,N
1511173155.4,286046983.4,N
1511173175.2,286046983.4,N
1511173195.0,286046982.9,N
1511173195.9,286046982.9,N
1511173215.8,286046980.5,N
1511173235.6,286046985.0,N
1511173255.4,286046984.6,N
1511173275.3,286046985.2,N
1511173295.1,286046980.5,N
1511173296.0,286046980.5,N
1511173315.8,286046980.5,Y
1511173335.7,286046996.0,P
1511173355.5,286046992.5,N
1511173375.3,286046988.6,N
1511173395.2,286046987.2,Y
1511173415.9,286046994.1,P
1511173435.7,286046997.2,N
1511173455.6,286047000.6,N
1511173475.4,286046999.7,N
1511173495.2,286047002.5,N
1511173515.1,286046999.1,N
1511173516.0,286046999.1,N
1511173535.8,286047002.6,N
1511173555.6,286047006.4,N
1511173575.4,286047008.4,N
1511173595.3,286047009.3,N
1511173615.1,286047010.1,N
1511173635.8,286047013.2,N
1511173655.7,286047011.1,N
1511173675.5,286047011.9,N
1511173695.3,286047007.7,N
1511173715.2,286047009.6,N
1511173735.9,286047009.5,N
1511173755.7,286047012.4,N
1511173775.6,286047010.8,N
1511173795.4,286047007.7,N
1511173815.2,286047011.2,N
1511173835.0,286047013.1,N
1511173836.0,286047013.1,N
1511173855.8,286047016.3,N
1511173875.6,286047020.7,Y
1511173895.5,286047013.8,P
1511173915.3,286047013.0,P
1511173935.1,286047015.2,P
1511173955.9,286047014.9,Y
1511173975.7,286047002.5,P
1511173995.5,286047005.6,N
1511174015.3,286047005.0,N
1511174035.2,286047006.3,N
1511174055.0,286047007.0,N
1511174055.9,286047007.0,N
1511174075.7,286047006.4,N
1511174095.6,286047008.4,Y
1511174115.4,286047005.2,P
1511174135.2,286047003.6,P
1511174155.1,286046999.8,N
1511174156.0,286046999.8,N
1511174175.8,286047002.1,N
1511174195.6,286046998.3,N
1511174215.5,286046998.4,N
1511174235.3,286046998.4,N
1511174255.1,286047000.2,N
1511174275.9,286047001.5,N
1511174295.7,286047002.4,N
1511174315.5,286046998.6,N
1511174335.4,286046999.0,N
1511174355.2,286047002.3,N
1511174375.0,286047002.2,N
1511174375.9,286047002.2,N
1511174395.7,286047002.4,N
1511174415.6,286047001.5,N
1511174435.4,286047006.5,N
1511174455.2,286047010.5,Y
1511174475.1,286047007.6,P
1511174476.0,286047007.6,N
1511174495.8,286047006.4,N
1511174515.6,286047005.9,N
1511174535.5,286047005.3,N
1511174555.3,286047005.9,N
1511174575.1,286047005.9,Y
1511174595.9,286046996.5,P
1511174615.7,286046998.5,N
1511174635.5,286046998.4,N
1511174655.4,286046999.1,N
1511174675.2,286046997.8,N
1511174695.0,286046996.8,N
1511174695.9,286046996.8,N
1511174715.8,286046997.2,N
1511174735.6,286046997.5,N
1511174755.4,286046998.0,N
1511174775.3,286046995.1,N
1511174795.1,286046997.6,N
1511174796.0,286046997.6,N
1511174815.8,286046996.0,N
1511174835.7,286046995.7,N
1511174855.5,286046998.8,N
1511174875.3,286046998.6,N
1511174895.1,286046999.3,N
1511174915.9,286047001.1,N
1511174935.7,286047000.3,N
1511174955.5,286046998.2,N
1511174975.4,286046994.1,N
1511174995.2,286046990.0,Y
1511175015.0,286046991.0,P
1511175015.9,286046991.0,N
1511175035.8,286046986.5,P
1511175055.6,286046984.7,Y
1511175075.4,286046989.1,P
1511175095.3,286046987.0,P
1511175115.1,286046985.7,P
1511175135.8,286046990.0,Y
1511175155.7,286046998.3,P
1511175175.5,286047004.2,N
1511175195.3,286047007.3,N
1511175215.2,286047009.0,N
1511175235.9,286047003.3,N
1511175255.7,286047000.9,N
1511175275.6,286046998.2,N
1511175295.4,286047000.8,N
1511175315.2,286047001.1,N
1511175335.1,286046999.5,N
1511175336.0,286046999.5,N
1511175355.8,286047001.2,N
1511175375.6,286047003.0,N
1511175395.4,286047001.3,N
1511175415.3,286047001.6,N
1511175435.1,286047000.0,N
1511175455.8,286047000.0,N
1511175475.7,286046996.5,N
1511175495.5,286046994.9,N
1511175515.3,286047000.6,N
1511175535.2,286047003.2,N
1511175555.9,286047003.0,N
1511175575.7,286047001.1,N
1511175595.6,286046997.2,N
